Retour au catalogue

CZ-6A DEB

ActifPO
NORAD 60652·DEBRIS·🇨🇳 China

Lancé Aug 6, 2024 depuis Taiyuan Satellite Launch Center

Loading…

Prochains Passages (prochaines 24 heures)

TLE

FraisSource: Space-Track

Époque: Sep 14, 2026, 10:28 UTC

1 60652U 24140BD  26257.43624673  .00001829  00000-0  48219-3 0  9994
2 60652  88.9235 254.0049 0052211 339.3358  20.5735 14.47821353110759

Suivez CZ-6A DEB en temps réel avec AllMySat

Download on the App Store